Location: Sagn�
(15.2046°N, 12.7898°W)
Time: 12:35:26
(UTC+00:00)

Okean 3 Rocket - Pass Details

Date: 08 May 2021
Orbit: 614 x 646 km, 82.5° (Epoch: 14 June)

Event Time Altitude Azimuth Distance (km) Brightness Sun altitude
Rises 19:45:50 0° 11° (NNE) 2,893 7.1 -8.8°
Reaches altitude 10° 19:48:18 10° 23° (NNE) 1,981 6.1 -9.4°
Maximum altitude 19:52:07 29° 84° (E) 1,134 4.4 -10.2°
Enters shadow 19:55:47 11° 143° (SE) 1,925 5.6 -11.1°
